Regional Weather Roundup
Issued by NWS

Home | Current Version | Previous Version | Text Only | Print | Product List | Glossary On
Versions: 1 2 3 4 5 6 7 8 9 10 11 12 13 14 15 16 17 18 19 20 21 22 23 24 25 26 27 28 29 30 31 32 33 34 35 36 37 38 39 40 41 42 43 44 45 46 47 48 49 50
000
ASUS43 KTOP 131608
RWRKS

WEATHER ROUNDUP FOR KANSAS
NATIONAL WEATHER SERVICE GOODLAND KS
1000 AM CST WED NOV 13 2019

NOTE:  "FAIR" INDICATES FEW OR NO CLOUDS BELOW 12,000 FEET WITH NO
SIGNIFICANT WEATHER AND/OR OBSTRUCTIONS TO VISIBILITY.

KSZ001>006-013>018-027>032-041>047-131700-
NORTHWEST KANSAS

CITY           SKY/WX    TMP DP  RH WIND       PRES   REMARKS
GOODLAND       SUNNY     52  20  28 N18G24    29.93R
HAYS           SUNNY     36  16  44 W7        29.90R
HILL CITY      SUNNY     45  23  42 N15       29.91R
RUSSELL        SUNNY     37  15  40 SW14      29.90R WCI  28
$$

KSZ061>065-074>080-084>089-131700-
SOUTHWEST KANSAS

CITY           SKY/WX    TMP DP  RH WIND       PRES   REMARKS
DODGE CITY     SUNNY     38  20  48 SW7       29.86R
ELKHART        SUNNY     57  24  28 NW14G20   29.87S
GARDEN CITY    SUNNY     40  22  48 NW10      29.87R WCI  33
GREAT BEND     SUNNY     38  17  42 SW14      29.91S WCI  30
LIBERAL        SUNNY     43  21  41 CALM      29.87R
PRATT          SUNNY     37  15  40 SW17      29.92F WCI  27
$$

KSZ066>073-081>083-090>101-131700-
SOUTHEAST KANSAS

CITY           SKY/WX    TMP DP  RH WIND       PRES   REMARKS
CHANUTE        SUNNY     35  15  44 S24G37    30.08F WCI  23
COFFEYVILLE    SUNNY     33  16  49 S26G38    30.12F WCI  20
HUTCHINSON     SUNNY     36  14  40 S18       29.96F WCI  26
MEDICINE LODGE   N/A     37  16  42 S14G26    29.96R WCI  28
NEWTON         SUNNY     35  13  40 SW25      29.98R WCI  23
PARSONS        SUNNY     34  18  52 S18G32    30.12F WCI  23
WICHITA INTL   MOSUNNY   37  14  38 S23       29.98F WCI  26
WICHITA JABRA  SUNNY     36  14  40 S18G32    29.98F WCI  26
WINFIELD       SUNNY     36  14  40 S17G35    30.04F WCI  26
$$

KSZ007>012-019>026-033>040-048>060-102>105-131700-
NORTHEAST KANSAS

CITY           SKY/WX    TMP DP  RH WIND       PRES   REMARKS
CONCORDIA      SUNNY     33  14  45 SW9       29.94R
EMPORIA        SUNNY     33  15  47 S22G33    30.00F WCI  21
LAWRENCE       SUNNY     36  16  44 S15G22    30.04F WCI  27
MANHATTAN      SUNNY     34  14  43 S10G21    29.96F WCI  26
MARYSVILLE     SUNNY     32  18  55 SW13      29.95S WCI  22
OLATHE IND     SUNNY     33  16  49 S22G29    30.05F WCI  21
OLATHE EXE     SUNNY     32  17  54 S15G24    30.04F WCI  22
SALINA         SUNNY     36  14  40 S17G26    29.93F WCI  26
TOPEKA BILLARD SUNNY     35  13  40 S14G26    30.00F WCI  26
TOPEKA FORBES  SUNNY     35  14  42 S22G33    30.00F WCI  23
$$



USA.gov is the U.S. government's official web portal to all federal, state and local government web resources and services.